Location: Antichan
(42.9728°N, 0.6667°E)
Time: 13:57:15
(UTC+00:00)

Cosmos 1140 Rocket - Pass Details

Date: 15 August 2020
Orbit: 745 x 767 km, 74.1° (Epoch: 25 September)

Event Time Altitude Azimuth Distance (km) Brightness Sun altitude
Rises 19:20:18 0° 190° (S) 3,218 6.6 -4.4°
Reaches altitude 10° 19:22:40 10° 188° (S) 2,297 5.8 -4.8°
Maximum altitude 19:27:50 67° 107° (ESE) 831 3.5 -5.7°
Drops below altitude 10° 19:33:03 10° 25° (NNE) 2,312 6.0 -6.6°
Sets 19:35:26 0° 23° (NNE) 3,241 6.8 -7.0°
